DW6471 Weather Reports


Display with metric or nautical units.
time (UTC)temp
F
wind
direction
speed
MPH
gust
MPH
rain 1hr
in
rain 24hr
in
rain mn
in
humidity
%
barometer
mb
20260504200556 78 202 4.0 12.0 0.00 0.00 0.00 38 1015.7
20260504195451 78 195 3.0 8.0 0.00 0.00 0.00 38 1015.9
20260504194950 78 233 4.0 7.0 0.00 0.00 0.00 40 1015.8
20260504194448 78 220 3.0 9.0 0.00 0.00 0.00 38 1016.0
20260504193947 78 290 3.0 10.0 0.00 0.00 0.00 38 1016.1
20260504193446 78 216 3.0 10.0 0.00 0.00 0.00 41 1016.2
20260504192945 78 235 3.0 10.0 0.00 0.00 0.00 40 1016.2
20260504192717 78 177 3.0 11.0 0.00 0.00 0.00 38 1016.2
20260504191945 78 220 3.0 13.0 0.00 0.00 0.00 41 1016.3
20260504191446 78 213 4.0 13.0 0.00 0.00 0.00 39 1016.4
20260504190946 78 208 4.0 12.0 0.00 0.00 0.00 40 1016.5
20260504190446 78 204 4.0 12.0 0.00 0.00 0.00 39 1016.5
20260504185945 78 332 3.0 8.0 0.00 0.00 0.00 39 1016.6
20260504185446 78 202 2.0 7.0 0.00 0.00 0.00 38 1016.6
20260504184945 78 251 3.0 8.0 0.00 0.00 0.00 41 1016.8
20260504184444 78 222 3.0 8.0 0.00 0.00 0.00 40 1016.8
20260504183943 78 193 3.0 7.0 0.00 0.00 0.00 38 1016.8
20260504183444 78 293 3.0 10.0 0.00 0.00 0.00 38 1016.9
20260504182941 78 219 3.0 10.0 0.00 0.00 0.00 39 1016.8
20260504182442 78 221 3.0 9.0 0.00 0.00 0.00 37 1016.9
20260504181939 78 246 3.0 11.0 0.00 0.00 0.00 39 1016.9
20260504181439 78 200 3.0 11.0 0.00 0.00 0.00 39 1017.2
20260504180937 78 249 3.0 10.0 0.00 0.00 0.00 39 1017.2
20260504180437 78 249 4.0 10.0 0.00 0.00 0.00 37 1017.2
20260504175938 78 214 4.0 10.0 0.00 0.00 0.00 39 1017.2
20260504175438 78 248 3.0 10.0 0.00 0.00 0.00 36 1017.2
20260504174935 79 309 2.0 10.0 0.00 0.00 0.00 38 1017.3
20260504174435 79 257 2.0 7.0 0.00 0.00 0.00 40 1017.2
20260504173936 79 247 2.0 7.0 0.00 0.00 0.00 38 1017.2
20260504173433 80 213 2.0 5.0 0.00 0.00 0.00 40 1017.2
20260504172933 80 198 2.0 5.0 0.00 0.00 0.00 40 1017.2
20260504172434 79 276 2.0 6.0 0.00 0.00 0.00 40 1017.1
20260504171931 79 219 2.0 6.0 0.00 0.00 0.00 38 1017.2
20260504171430 79 148 2.0 5.0 0.00 0.00 0.00 41 1017.2
20260504170929 79 251 2.0 5.0 0.00 0.00 0.00 39 1017.4
20260504170429 79 205 1.0 6.0 0.00 0.00 0.00 40 1017.4
20260504160421 78 100 2.0 6.0 0.00 0.00 0.00 38 1018.0
20260504150915 76 212 1.0 4.0 0.00 0.00 0.00 46 1018.2
20260504150414 76 215 1.0 4.0 0.00 0.00 0.00 48 1018.3
20260504140913 72 218 0.0 2.0 0.00 0.00 0.00 63 1018.4
20260504140413 71 214 0.0 2.0 0.00 0.00 0.00 65 1018.4
20260504130639 65 210 0.0 0.0 0.00 0.00 0.00 79 1018.4
20260504130141 64 210 0.0 1.0 0.00 0.00 0.00 81 1018.3
20260504110401 50 210 0.0 1.0 0.00 0.00 0.00 94 1017.2
20260504100401 50 210 0.0 0.0 0.00 0.00 0.00 94 1017.7
20260504081853 52 210 0.0 0.0 0.00 0.00 0.00 93 1017.6
20260504081625 52 210 0.0 0.0 0.00 0.00 0.00 93 1017.6
20260504080853 52 210 0.0 0.0 0.00 0.00 0.00 93 1017.6
20260504080353 52 210 0.0 0.0 0.00 0.00 0.00 93 1017.6
20260504070351 53 210 0.0 0.0 0.00 0.00 0.00 92 1018.2
20260504050345 55 210 0.0 0.0 0.00 0.00 0.00 88 1019.0
20260504050113 55 210 0.0 0.0 0.00 0.00 0.00 88 1019.0
20260504045341 55 210 0.0 0.0 0.00 0.00 0.00 88 1019.1
20260504044841 55 210 0.0 0.0 0.00 0.00 0.00 88 1019.0
20260504044342 55 210 0.0 0.0 0.00 0.00 0.00 88 1019.0
20260504044112 55 210 0.0 0.0 0.00 0.00 0.00 88 1019.0
20260504043612 55 210 0.0 0.0 0.00 0.00 0.00 87 1019.1
20260504042842 55 210 0.0 0.0 0.00 0.00 0.00 87 1019.1
20260504042341 55 210 0.0 0.0 0.00 0.00 0.00 87 1019.1
20260504042113 55 210 0.0 0.0 0.00 0.00 0.00 86 1019.2
20260504041342 56 210 0.0 0.0 0.00 0.00 0.00 86 1019.1
20260504040841 56 210 0.0 0.0 0.00 0.00 0.00 86 1019.1
20260504040342 55 210 0.0 0.0 0.00 0.00 0.00 86 1019.0
20260504040113 56 210 0.0 0.0 0.00 0.00 0.00 85 1019.0
20260504035342 56 210 0.0 0.0 0.00 0.00 0.00 84 1019.0
20260504034845 57 210 0.0 0.0 0.00 0.00 0.00 83 1018.9
20260504034841 56 210 0.0 0.0 0.00 0.00 0.00 83 1018.9
20260504033842 57 210 0.0 0.0 0.00 0.00 0.00 83 1018.8
20260504033342 57 210 0.0 0.0 0.00 0.00 0.00 82 1018.8
20260504032841 58 210 0.0 0.0 0.00 0.00 0.00 82 1018.9
20260504032342 58 210 0.0 0.0 0.00 0.00 0.00 82 1019.0
20260504031841 58 210 0.0 0.0 0.00 0.00 0.00 82 1018.9
20260504031341 58 210 0.0 0.0 0.00 0.00 0.00 81 1018.9
20260504030842 58 210 0.0 0.0 0.00 0.00 0.00 81 1018.9
20260504030342 58 210 0.0 0.0 0.00 0.00 0.00 79 1019.0
20260504025841 59 210 0.0 0.0 0.00 0.00 0.00 79 1018.9
20260504025342 59 210 0.0 0.0 0.00 0.00 0.00 79 1019.0
20260504024841 59 210 0.0 0.0 0.00 0.00 0.00 79 1018.9
20260504024612 59 210 0.0 0.0 0.00 0.00 0.00 79 1018.9
20260504023841 59 210 0.0 0.0 0.00 0.00 0.00 78 1018.9
20260504023341 59 210 0.0 0.0 0.00 0.00 0.00 78 1018.9
20260504022848 60 210 0.0 0.0 0.00 0.00 0.00 74 1018.7
20260504022842 60 210 0.0 0.0 0.00 0.00 0.00 76 1018.9
20260504022342 60 210 0.0 0.0 0.00 0.00 0.00 75 1018.8
20260504021341 61 210 0.0 0.0 0.00 0.00 0.00 73 1018.7
20260504020841 61 210 0.0 1.0 0.00 0.00 0.00 73 1018.7
20260504020342 61 210 0.0 1.0 0.00 0.00 0.00 73 1018.6
20260504015841 61 210 0.0 0.0 0.00 0.00 0.00 72 1018.6
20260504015342 62 210 0.0 0.0 0.00 0.00 0.00 71 1018.6
20260504014842 62 210 0.0 0.0 0.00 0.00 0.00 69 1018.5
20260504014341 63 210 0.0 0.0 0.00 0.00 0.00 68 1018.4
20260504014113 64 210 0.0 0.0 0.00 0.00 0.00 66 1018.4
20260504013341 65 210 0.0 1.0 0.00 0.00 0.00 64 1018.3
20260504012842 65 210 0.0 1.0 0.00 0.00 0.00 62 1018.3
20260504012342 66 213 0.0 2.0 0.00 0.00 0.00 62 1018.2
20260504011841 66 214 0.0 2.0 0.00 0.00 0.00 60 1018.1
20260504011613 67 244 0.0 2.0 0.00 0.00 0.00 59 1018.0
20260504010842 67 244 0.0 2.0 0.00 0.00 0.00 58 1018.0
20260504010341 67 210 0.0 4.0 0.00 0.00 0.00 57 1018.1
20260504005842 67 218 1.0 4.0 0.00 0.00 0.00 56 1018.0
20260504005341 67 226 0.0 4.0 0.00 0.00 0.00 55 1018.0
20260504004841 68 215 0.0 1.0 0.00 0.00 0.00 55 1018.0
20260504004342 68 217 0.0 2.0 0.00 0.00 0.00 53 1017.9
20260504003841 69 266 0.0 2.0 0.00 0.00 0.00 53 1017.8
20260504003342 69 215 0.0 3.0 0.00 0.00 0.00 51 1017.7
20260504002841 69 228 1.0 4.0 0.00 0.00 0.00 50 1017.6
20260504002342 70 226 1.0 4.0 0.00 0.00 0.00 50 1017.6
20260504001841 70 221 0.0 2.0 0.00 0.00 0.00 49 1017.6
20260504001339 71 264 0.0 4.0 0.00 0.00 0.00 48 1017.6
20260504001111 71 236 0.0 4.0 0.00 0.00 0.00 46 1017.5
20260504000337 71 120 0.0 1.0 0.00 0.00 0.00 46 1017.5
20260503235838 72 48 0.0 1.0 0.00 0.00 0.00 42 1017.4
20260503235336 73 48 0.0 2.0 0.00 0.00 0.00 39 1017.4
20260503234833 74 48 1.0 3.0 0.00 0.00 0.00 37 1017.4
20260503234334 74 48 2.0 4.0 0.00 0.00 0.00 35 1017.4
20260503233834 75 34 1.0 4.0 0.00 0.00 0.00 36 1017.5
20260503233329 75 65 1.0 4.0 0.00 0.00 0.00 35 1017.5
20260503233100 76 94 1.0 4.0 0.00 0.00 0.00 35 1017.6
20260503232329 76 47 1.0 4.0 0.00 0.00 0.00 36 1017.7
20260503231826 76 74 1.0 3.0 0.00 0.00 0.00 35 1017.7
20260503231326 76 306 2.0 5.0 0.00 0.00 0.00 33 1017.6
20260503230825 76 79 2.0 5.0 0.00 0.00 0.00 33 1017.5
20260503230329 76 58 2.0 7.0 0.00 0.00 0.00 34 1017.6
20260503230325 76 53 3.0 7.0 0.00 0.00 0.00 32 1017.5
20260503225325 77 1 1.0 3.0 0.00 0.00 0.00 32 1017.6
20260503224826 77 326 2.0 4.0 0.00 0.00 0.00 32 1017.5
20260503224325 77 24 2.0 7.0 0.00 0.00 0.00 32 1017.6
20260503223822 77 326 2.0 7.0 0.00 0.00 0.00 32 1017.6
20260503223320 77 109 2.0 5.0 0.00 0.00 0.00 32 1017.5
20260503222819 77 76 2.0 5.0 0.00 0.00 0.00 31 1017.6
20260503222320 78 347 2.0 8.0 0.00 0.00 0.00 31 1017.5
20260503222049 77 262 2.0 8.0 0.00 0.00 0.00 34 1017.5
20260503221317 77 326 1.0 6.0 0.00 0.00 0.00 33 1017.6
20260503220816 77 96 2.0 8.0 0.00 0.00 0.00 32 1017.6
20260503220315 77 346 3.0 8.0 0.00 0.00 0.00 32 1017.6
20260503220045 77 86 2.0 5.0 0.00 0.00 0.00 31 1017.6
20260503215312 78 7 2.0 6.0 0.00 0.00 0.00 30 1017.7
20260503214811 78 249 2.0 6.0 0.00 0.00 0.00 32 1017.7
20260503214309 78 52 1.0 6.0 0.00 0.00 0.00 32 1017.8
20260503213809 78 35 1.0 6.0 0.00 0.00 0.00 30 1017.8
20260503213308 78 59 1.0 9.0 0.00 0.00 0.00 31 1017.7
20260503212805 78 217 2.0 9.0 0.00 0.00 0.00 30 1017.8
20260503212305 78 217 2.0 7.0 0.00 0.00 0.00 30 1017.9
20260503211804 77 354 3.0 7.0 0.00 0.00 0.00 30 1018.0
20260503211303 78 62 3.0 6.0 0.00 0.00 0.00 32 1018.0
20260503210808 78 52 3.0 9.0 0.00 0.00 0.00 30 1018.0
20260503210804 78 10 3.0 9.0 0.00 0.00 0.00 32 1018.1
20260503210033 78 300 2.0 5.0 0.00 0.00 0.00 31 1018.0
20260503205532 77 240 3.0 7.0 0.00 0.00 0.00 33 1018.2
20260503204802 78 81 3.0 7.0 0.00 0.00 0.00 31 1018.4
20260503204301 78 68 2.0 8.0 0.00 0.00 0.00 32 1018.5
20260503203759 78 48 2.0 8.0 0.00 0.00 0.00 29 1018.5
20260503203300 78 335 2.0 6.0 0.00 0.00 0.00 30 1018.6
20260503202759 78 218 2.0 6.0 0.00 0.00 0.00 30 1018.7
20260503202259 77 328 2.0 7.0 0.00 0.00 0.00 30 1018.8
20260503201800 78 39 2.0 7.0 0.00 0.00 0.00 29 1018.9
20260503201257 78 23 2.0 7.0 0.00 0.00 0.00 29 1019.0
20260503201025 78 146 2.0 9.0 0.00 0.00 0.00 31 1019.1